www.pogodaiklimat.ru

Погода и климат >> Архив погоды >> Россия >> Якутия >> Сухана


ПОГОДА в Сухане

  • Прогноз погоды в Сухане
  • Монитор погоды в Сухане
  • Климат города

АРХИВ ПОГОДЫ в Сухане

Время (UTC), дата Ветер
(напр.,м/с)
 
Видим.   Явления Облачность Т
(С)
Тd
(С)
f
(%)
Тe
(С)
Тes
(С)
Комфортность P
(гПа)
Po
(гПа)
Тmin
(С)
Tmax
(С)
R
(мм)
R24
(мм)
S
(см)
12 18.09 Ю 1 50 км 8/3 600 м
[Sc Cs]
+2.1 -3.2 68 +1 +1 1019.1 1009.5 +7.0
15 18.09 СЗ 1 50 км 10/10 600 м
[Sc]
-0.7 -3.2 83 -3 -3 1019.2 1009.5
18 18.09 штиль 0 50 км 10/10 600 м
[Sc]
-0.5 -2.3 88 -2 -2 1019.6 1009.9
21 18.09 штиль 0 50 км 9/9 1000 м
[Sc]
-1.5 -2.6 92 -3 -3 1019.5 1009.8
00 19.09 штиль 0 50 км 1/1 1000 м
[Sc]
-1.8 -3.0 91 -3 -2 1019.4 1009.7 -1.8
03 19.09 Ю 1 50 км 1/1 1000 м
[Sc]
+4.6 -1.1 66 +4 +6 1019.0 1009.4
06 19.09 В 2 50 км ясно +7.9 -1.2 53 +6 +9 1017.7 1008.2
09 19.09 Ю 1 50 км ясно +8.9 -2.7 44 +9 +9 1016.4 1007.0
12 19.09 Ю 1 50 км 4/1 600 м
[Sc Ac trans Cs]
+3.9 -4.9 53 +3 +3 1016.2 1006.6 +9.1
15 19.09 С 1 50 км ясно -2.0 -5.3 78 -4 -4 1015.4 1005.7
18 19.09 С 1 50 км 1/0
[Ac trans]
-3.8 -4.3 96 -6 -6 1015.2 1005.3
21 19.09 С 1 50 км 10/10 1000 м
[Sc]
-2.4 -4.0 89 -5 -5 1014.7 1005.0
00 20.09 С 1 50 км 10/10 1000 м
[Sc]
-1.2 -2.4 92 -3 -3 1015.1 1005.4 -4.0
03 20.09 Ю 1 50 км 9/9 1000 м
[Sc]
+2.4 +0.3 86 +1 +1 1016.1 1006.5
06 20.09 СЗ 1 50 км 8/8 1000 м
[Sc]
+5.5 -2.2 58 +5 +5 1017.4 1007.8
09 20.09 С 2 50 км 3/1 600 м
[Cu hum Ci fib]
+4.8 -3.2 56 +3 +3 1018.6 1009.0
12 20.09 штиль 0 50 км ясно -0.6 -4.8 73 -2 -2 1020.5 1010.7 +5.8
15 20.09 штиль 0 50 км 4/4 1000 м
[Sc]
-3.3 -4.7 90 -4 -4 1021.7 1011.7
18 20.09 штиль 0 50 км 3/3 1000 м
[Sc]
-7.8 -7.8 100 -9 -9 1022.9 1012.7
21 20.09 З 1 50 км ясно -7.9 -7.9 100 -10 -10 1023.1 1012.9
00 21.09 С 1 500 м туман ясно -7.1 -7.1 100 -10 -9 1023.1 1013.1 -8.8
03 21.09 штиль 0 50 км {туман} 10/10 1000 м
[Sc]
-3.7 -3.7 100 -5 -5 1022.2 1012.2
06 21.09 Ю 1 50 км {туман} 8/3 1000 м
[Sc Ac trans Ci sp]
+4.9 -2.4 59 +4 +5 1019.7 1010.1
09 21.09 Ю 2 50 км 10/10 1000 м
[Sc]
+6.9 -0.4 60 +5 +5 1017.1 1007.7
12 21.09 Ю 2 50 км 10/10 1000 м
[Sc]
+6.8 +0.4 64 +5 +5 1015.8 1006.2 +7.0
15 21.09 ЮЗ 2 50 км 10/10 1000 м
[Sc]
+7.4 -0.0 59 +6 +6 1012.4 1003.0
18 21.09 Ю 1 50 км 10/10 1000 м
[Sc]
+7.4 +1.7 67 +7 +7 1012.0 1002.6
21 21.09 Ю 1 50 км 10/10 1000 м
[Sc]
+6.8 +1.9 71 +6 +6 1011.1 1001.7
00 22.09 З 1 50 км 10/10 1000 м
[Sc]
+6.7 +3.1 78 +6 +6 1011.1 1001.7 +6.2
03 22.09 З 3 50 км 9/9 1000 м
[Sc]
+8.6 +3.0 68 +6 +6 1011.5 1002.1
06 22.09 З 3 50 км 9/6 600 м
[Cb cap Cs]
+8.3 +3.0 69 +6 +6 1012.3 1002.9
09 22.09 З 3 50 км 9/8 600 м
[Cb cap Ac trans]
+8.9 +0.9 57 +7 +7 1012.4 1003.0
12 22.09 штиль 0 50 км 6/6 600 м
[Cb cap]
+5.0 +3.0 87 +4 +4 1014.3 1004.7 +9.9
15 22.09 штиль 0 50 км 6/0
[Ac trans Ci fib]
+2.1 +2.1 100 +1 +1 1014.3 1004.7
18 22.09 В 1 50 км 6/0
[Ac trans Ci fib]
-0.3 -0.3 100 -3 -3 1015.2 1005.5
21 22.09 Ю 1 50 км 10/10 1000 м
[Sc]
+1.0 +1.0 100 -1 -1 1016.0 1006.3
00 23.09 З 1 50 км 9/9 1000 м
[Sc]
+1.7 +1.2 96 -0 -0 1016.4 1006.7 -0.3
03 23.09 ЮЗ 2 50 км 3/3 1000 м
[Sc]
+5.1 +2.1 81 +3 +4 1016.5 1006.9
06 23.09 Ю 2 50 км 8/4 600 м
[Cu Sc Cs]
+8.2 -0.5 54 +7 +8 1015.5 1006.1
09 23.09 Ю 2 50 км 6/0
[Cs]
+8.8 +0.2 55 +7 +8 1014.4 1005.0
12 23.09 ЮЗ 2 50 км 10/10 1000 м
[Sc]
+5.6 +0.5 70 +3 +3 1014.1 1004.5 +8.8
15 23.09 Ю 1 50 км 10/10 1000 м
[Sc]
+6.8 +0.1 62 +6 +6 1012.1 1002.5
18 23.09 Ю 1 50 км 10/10 1000 м
[Sc]
+7.8 +0.2 59 +7 +7 1009.9 1000.5
21 23.09 Ю 1 50 км 10/10 1000 м
[Sc]
+7.5 +1.1 64 +7 +7 1008.3 999.0
00 24.09 Ю 1 50 км 10/10 1000 м
[Sc]
+7.2 +1.5 67 +7 +7 1007.6 998.3 +5.6
03 24.09 Ю 2 50 км 10/10 1000 м
[Sc]
+7.7 +1.3 64 +6 +6 1006.1 997.8
06 24.09 ЮЗ 3 50 км 8/1 600 м
[Cu med, cong Ac trans Cc]
+13.4 +2.3 47 +12 +13 1006.1 997.0
09 24.09 СЗ 2 50 км 10/10 1000 м
[Sc]
+12.6 +2.9 52 +12 +12 1006.5 997.4
12 24.09 С 2 50 км 10/10 1000 м
[Sc]
+9.1 +3.2 67 +8 +8 1007.2 997.9 +13.8
15 24.09 штиль 0 50 км 10/10 1000 м
[Sc]
+6.5 +3.7 82 +6 +6 1007.8 998.3
18 24.09 штиль 0 50 км 3/3 1000 м
[Sc]
+1.5 +1.0 96 0 0 1008.1 998.5
21 24.09 штиль 0 50 км 3/3 1000 м
[Sc]
-1.4 -1.4 100 -3 -3 1007.5 997.9
00 25.09 штиль 0 500 м туман ясно -1.4 -1.4 100 -3 -2 1008.2 998.6 -1.4
03 25.09 штиль 0 1000 м дымка {туман} 8/5 1000 м
[Sc As op Ci fib]
+0.6 +0.6 100 -1 0 1007.5 997.9
06 25.09 штиль 0 50 км {туман} 9/6 1000 м
[Sc Ac trans]
+10.7 +3.0 59 +10 +11 1006.8 997.5
09 25.09 штиль 0 50 км 9/9 600 м
[Cb cap]
+10.8 +3.0 59 +10 +10 1007.1 997.8

 

Местоположение метеостанции Сухана (Якутия, Россия): широта 68.62 долгота 118.30 высота над уровнем моря 77 м.

В архиве по умолчанию представлена погода в Сухане за последнюю неделю. Архивные данные за месяц целиком и за предыдущие месяцы, начиная с января 2011 года, Вы можете получить, выбрав интересующий диапазон дат из раскрывающегося списка и нажав кнопку "Ввод!".


*Определитесь, кто Вы:
робот инопланетянин человек

Внимание! Время в таблицах - всемирное. Для получения местного времени необходимо прибавить поправку, которая в Сухане равна 9 ч.

Смотрите также архив погоды в соседних городах и на ближайших метеорологических станциях:

Погода в Джарджане (Якутия, Россия) (231 км)
Погода в Оленеке (Якутия, Россия) (240 км)
Погода в Джалинде (Якутия, Россия) (241 км)
Погода в Эйке (Якутия, Россия) (291 км)
Погода в Жиганске (Якутия, Россия) (294 км)
Погода в Шелагонцах (Якутия, Россия) (316 км)
Погода в Полярном (Якутия, Россия) (326 км)
Погода в Саскылахе (Якутия, Россия) (406 км)
Погода в Тюмяти (Якутия, Россия) (415 км)
Погода в Айхале (Якутия, Россия) (419 км)

Пояснения к столбцам:

Ветер - указаны скорость ветра в м/с - средняя за 10 мин, порывы в срок и между сроками (в фигурных скобках) и направление, откуда дует ветер: С - северный, СВ - северо-восточный, В - восточный, ЮВ - юго-восточный, Ю - южный, ЮЗ - юго-западный, З - западный, СЗ - северо-западный.
Видимость - горизонтальная дальность видимости в метрах или километрах. При видимости от 1 до 10 км при отсутствии осадков обычно наблюдается дымка, при ухудшении видимости до 1 км и менее - туман. В сухую погоду видимость может ухудшаться дымом, пылью или мглою.
Явления - указаны атмосферные явления, наблюдавшиеся в срок или в последний час перед сроком; фигурными скобками обозначены явления, наблюдавшиеся между сроками (за 1-3 часа до срока); квадратными скобками обозначены град или гололедные отложения с указанием их диаметра в мм.
Облачность - указаны через наклонную черту общая и нижняя облачность в баллах и высота нижней границы облаков в метрах; квадратными скобками обозначены формы облаков: Ci - перистые, Cs - перисто-слоистые, Cc - перисто-кучевые, Ac - высококучевые, As - высокослоистые, Sc - слоисто-кучевые, Ns - слоисто-дождевые, Cu - кучевые, Cb - кучево-дождевые. Подробнее классификацию облаков см. в Атласе облаков (PDF).
T - Температура воздуха - температура, измеренная на высоте 2 м над землей.
Td - Температура точки росы - температура, при понижении до которой содержащийся в воздухе водяной пар достигнет насыщения.
f - Относительная влажность воздуха - влажноcть воздуха, измеренная на высоте 2 м над землей.
Te - Эффективная температура - температура, которую ощущает одетый по сезону человек в тени. Характеристика душности погоды. При расчете учитывается влияние влажности воздуха и скорости ветра на теплоощущения человека.
Tes - Эффективная температура на солнце - температура, которую ощущает человек, с поправкой на солнечный нагрев. Характеристика знойности погоды. Зависит от высоты солнца над горизонтом, облачности и скорости ветра. Ночью, в пасмурную погоду, а также при ветре 12 м/с и более поправка равна нулю.
P - Атмосферное давление - приведенное к уровню моря атмосферное давление.
Po - Атмосферное давление - измеренное на уровне метеостанции атмосферное давление.
Tmin - Минимальная температура - минимум температуры воздуха на высоте 2 м над землей.
Tmax - Максимальная температура - максимум температуры воздуха на высоте 2 м над землей.
R - Количество осадков - Количество выпавших осадков за период времени, мм. При наведении курсора мыши на число - период времени, за который выпало указанное количество осадков.
R24 - Количество осадков - Количество выпавших осадков за 24 часа, мм.
S - Снежный покров - Высота снежного покрова, см. При наведении курсора мыши на число - состояние снежного покрова и степень покрытия местности в баллах.